Temp
15 16 16 17 17 18 18 18 18 19 21 23 24 25 26 27 28 27 28 27 26 25 25 24 22 21 20 19 18 17 17 17 16 16 15 15 14 14 14 14 14 14 15 15
14 15 16 16 17 18 19 19 20 20 20 22 24 25 25 26 27 27 27 28 28 26 25 25 23 21 20 20 18 17 17 17 17 16 16 15 15 15 15 15 15 15 15 15
13 15 15 14 16 18 19 21 20 19 21 23 24 24 26 26 26 27 27 27 27 27 25 25 23 21 21 19 18 17 17 17 17 16 16 16 15 15 15 14 14 14 13 13
12 13 13 18 19 20 19 20 20 20 21 22 24 25 26 27 26 26 26 26 26 26 23 22 22 21 20 19 18 17 17 17 16 16 15 15 15 15 14 12 11 10 8 8
11 13 16 17 19 18 18 19 20 19 21 23 24 25 25 26 25 24 21 22 23 23 20 18 18 18 18 18 17 16 13 13 13 13 12 11 10 8 7 7 6 3 2 2
12 11 12 18 18 18 18 18 18 18 18 19 21 21 24 25 19 18 17 18 18 17 15 14 14 14 12 11 9 8 8 8 8 8 7 6 5 4 3 2 0 -0 -1 -1
11 11 14 17 17 17 15 16 16 16 16 18 19 21 22 16 13 14 13 12 12 12 11 11 10 9 8 7 6 5 5 5 4 4 4 3 2 1 0 -1 -1 -2 -3 -3
9 10 11 16 13 11 12 14 16 15 15 16 18 18 16 12 10 10 10 9 10 9 9 9 9 7 6 4 3 3 2 2 2 2 1 1 1 -1 -1 -1 -2 -3 -4 -4
13 12 15 15 13 12 13 14 16 14 13 16 17 17 11 10 9 8 8 7 6 5 6 5 5 5 3 3 2 2 2 1 0 -0 -1 -1 -1 -1 -2 -2 -3 -4 -4 -5
14 15 14 12 11 12 14 16 15 16 16 16 13 12 10 9 9 8 7 6 5 4 4 3 3 3 3 3 2 2 1 1 0 -0 -1 -2 -3 -3 -2 -2 -3 -3 -4 -4
15 15 15 16 16 16 16 16 14 14 16 15 12 10 9 8 7 6 5 4 4 3 3 3 3 3 4 4 3 2 1 0 -1 -2 -3 -4 -4 -4 -5 -5 -3 -3 -4 -4
14 16 15 15 16 16 16 16 14 12 16 14 12 10 8 5 4 3 3 2 2 2 2 2 2 2 2 3 2 1 0 0 -1 -1 -2 -3 -5 -6 -6 -7 -7 -6 -6 -6
15 16 15 15 15 15 15 13 11 11 13 10 8 6 4 2 1 0 0 0 -0 -0 -1 -1 -1 -1 -0 0 -1 -1 -2 -2 -2 -2 -2 -3 -3 -4 -6 -9 -9 -9 -9 -9
16 15 14 15 15 15 13 11 9 8 7 6 4 2 1 0 -1 -2 -2 -3 -3 -3 -4 -3 -4 -5 -4 -4 -4 -4 -4 -3 -3 -3 -3 -4 -4 -4 -5 -6 -7 -9 -11 -11
15 15 15 15 15 13 12 10 8 6 5 3 1 -0 -1 -1 -3 -4 -5 -5 -5 -6 -6 -6 -6 -6 -6 -5 -5 -5 -4 -5 -5 -6 -6 -6 -6 -6 -7 -7 -8 -8 -9 -10
15 14 14 14 14 12 10 9 7 4 2 0 -1 -2 -3 -4 -5 -5 -6 -6 -6 -7 -7 -7 -7 -7 -7 -6 -6 -7 -7 -7 -7 -7 -7 -7 -7 -8 -8 -9 -9 -10 -12 -12
12 13 14 13 11 9 9 7 5 2 -0 -1 -3 -4 -5 -6 -7 -8 -8 -8 -8 -8 -8 -7 -7 -7 -6 -6 -6 -7 -8 -9 -8 -8 -9 -9 -9 -10 -10 -10 -10 -11 -14 -16
8 9 9 9 10 7 5 4 3 0 -2 -4 -6 -6 -6 -7 -8 -9 -9 -9 -10 -10 -10 -9 -8 -8 -8 -8 -8 -9 -9 -10 -10 -10 -11 -11 -11 -11 -12 -12 -12 -13 -13 -15
5 6 6 6 7 5 3 2 -1 -3 -5 -6 -7 -7 -8 -8 -9 -9 -9 -10 -10 -10 -10 -10 -10 -10 -10 -10 -10 -10 -11 -11 -12 -12 -13 -13 -13 -13 -13 -14 -14 -14 -15 -15
1 3 3 3 2 1 -1 -3 -5 -6 -7 -8 -8 -8 -8 -9 -9 -9 -9 -10 -10 -10 -11 -11 -11 -11 -12 -12 -12 -12 -12 -13 -13 -14 -14 -14 -14 -14 -16 -16 -16 -16 -16 -16
-1 -1 -1 -2 -3 -4 -5 -6 -7 -7 -8 -8 -9 -10 -10 -10 -10 -10 -10 -10 -11 -12 -12 -12 -12 -12 -13 -13 -13 -14 -14 -14 -14 -14 -15 -15 -15 -15 -16 -16 -16 -17 -17 -18
-4 -4 -5 -5 -5 -6 -7 -7 -8 -9 -9 -10 -10 -11 -11 -11 -12 -12 -12 -12 -13 -13 -13 -13 -14 -15 -15 -14 -14 -15 -15 -15 -15 -15 -16 -16 -16 -16 -17 -17 -18 -18 -18 -19
-6 -6 -7 -7 -8 -9 -9 -9 -10 -10 -10 -10 -10 -10 -11 -11 -12 -12 -12 -14 -14 -15 -15 -16 -16 -17 -17 -16 -16 -16 -16 -17 -17 -17 -17 -18 -18 -18 -18 -19 -19 -19 -20 -20
-6 -7 -7 -8 -8 -8 -8 -10 -10 -11 -12 -12 -12 -12 -12 -13 -14 -14 -15 -16 -16 -16 -17 -17 -17 -18 -17 -17 -17 -17 -17 -17 -18 -18 -19 -19 -19 -19 -20 -20 -20 -21 -21 -21
-7 -7 -8 -8 -8 -9 -10 -11 -11 -12 -12 -13 -13 -13 -13 -14 -14 -15 -16 -17 -17 -17 -18 -17 -18 -18 -17 -17 -18 -18 -18 -18 -19 -19 -19 -20 -20 -20 -20 -21 -21 -22 -22 -22
-7 -7 -8 -8 -9 -10 -10 -11 -11 -12 -13 -14 -14 -15 -15 -16 -16 -16 -17 -17 -17 -18 -18 -18 -18 -18 -18 -18 -19 -19 -19 -19 -20 -20 -21 -21 -21 -21 -22 -22 -22 -22 -23 -23
-9 -9 -9 -9 -10 -11 -11 -11 -12 -13 -13 -14 -14 -15 -15 -16 -17 -17 -17 -17 -18 -18 -18 -18 -18 -19 -19 -19 -19 -20 -20 -21 -21 -21 -21 -21 -22 -22 -23 -23 -23 -23 -24 -24
Height
731 726 720 718 714 709 709 706 710 700 692 681 677 670 661 654 651 654 654 656 659 662 664 668 675 680 686 690 698 704 711 716 720 725 730 734 739 743 748 751 755 758 759 761
732 723 720 717 707 699 697 696 691 689 686 681 673 665 660 655 652 651 653 649 649 654 660 663 667 673 679 683 690 698 705 711 716 720 724 728 733 737 741 744 747 749 751 752
725 715 716 715 699 694 684 679 683 685 672 663 663 660 654 650 648 646 646 646 645 648 654 660 665 671 676 680 686 694 700 705 710 716 720 723 727 731 735 738 741 744 746 747
734 726 718 687 678 676 677 677 673 671 664 658 650 645 641 638 642 644 644 644 644 645 653 658 662 666 673 678 684 690 696 701 706 711 717 721 725 729 732 734 737 738 741 743
734 715 698 688 678 682 681 674 669 669 656 649 644 641 638 637 642 645 650 647 647 650 656 658 662 667 674 679 684 690 696 702 707 712 716 720 724 729 733 735 738 742 744 747
727 725 711 681 677 680 678 679 671 673 670 663 656 651 640 633 648 651 653 653 656 658 660 665 667 672 673 685 688 694 699 704 708 712 718 722 728 731 735 737 741 746 749 752
728 726 703 686 683 682 688 682 677 677 673 667 659 646 638 652 659 658 654 660 665 667 668 670 673 676 682 688 693 698 702 705 711 716 721 727 731 735 738 742 747 750 753 757
731 725 715 691 697 706 701 689 680 679 674 668 658 652 655 663 664 667 665 663 670 671 673 675 678 684 690 695 701 703 709 710 715 720 726 731 734 740 744 747 750 757 760 764
704 702 690 691 699 700 699 688 676 679 675 667 661 660 669 671 671 671 671 669 679 676 680 683 687 690 695 702 703 707 710 719 722 727 731 738 741 746 750 754 758 763 765 769
696 686 691 696 705 697 693 680 674 667 666 666 666 670 675 679 677 675 679 680 683 681 691 692 696 701 703 708 709 712 718 729 732 736 741 747 751 754 757 763 766 769 772 775
687 684 685 684 684 683 678 676 675 669 662 662 667 672 677 683 686 683 680 691 688 693 693 699 710 712 713 717 717 715 729 736 742 747 749 754 760 765 768 771 773 775 778 780
683 681 682 683 682 680 676 672 674 671 663 669 675 679 681 688 692 694 687 693 695 698 704 710 714 718 722 724 721 724 733 745 751 755 758 764 768 774 780 781 781 782 784 785
679 679 680 680 680 678 675 676 679 676 675 682 683 686 689 693 690 700 701 699 705 709 712 715 719 725 729 731 734 729 734 752 757 761 764 770 774 778 784 789 788 790 791 791
675 676 676 675 675 676 679 681 684 684 689 693 697 692 698 696 700 700 709 713 714 713 718 723 727 732 736 737 737 737 748 756 759 766 769 774 777 780 784 788 791 794 795 795
670 671 671 672 673 677 679 682 687 692 694 700 705 706 705 706 706 711 714 717 719 722 730 732 732 737 740 742 743 749 756 763 768 769 773 780 781 785 788 791 794 795 797 799
669 671 671 670 670 675 681 684 691 698 703 707 713 712 713 718 719 722 726 728 728 735 741 741 742 748 749 749 753 760 765 770 772 774 780 784 786 789 791 794 797 800 802 803
673 670 667 670 675 680 682 689 696 701 706 707 717 722 720 724 729 732 737 741 743 745 746 753 754 757 758 759 760 767 772 776 779 782 785 788 792 794 796 799 801 804 807 807
682 680 678 677 677 684 688 693 701 706 710 713 720 723 731 728 734 741 746 749 748 752 756 761 762 763 765 768 770 775 779 782 785 787 791 795 797 799 802 804 805 807 809 810
686 683 682 681 680 686 691 698 705 714 716 717 720 729 737 739 742 746 750 752 757 762 768 768 770 770 771 776 779 783 784 788 792 795 797 800 801 804 805 807 809 811 811 811
692 689 688 689 690 692 697 705 712 721 720 723 725 736 745 748 749 750 756 763 768 770 773 775 776 776 780 784 786 789 792 796 797 799 802 804 806 808 811 812 812 812 812 811
695 695 696 698 701 704 706 709 715 719 727 730 730 738 751 760 758 761 764 770 778 778 779 781 781 785 788 791 793 796 798 800 803 805 807 809 811 813 813 813 814 813 813 813
702 704 706 707 709 712 717 718 720 724 733 736 741 745 754 764 769 771 775 776 782 784 784 786 789 792 794 797 798 801 803 806 807 809 811 812 813 814 815 815 815 815 815 814
711 711 712 715 717 720 725 729 732 734 739 745 749 756 764 769 775 776 779 786 788 790 791 793 794 796 801 803 804 805 807 809 811 812 814 816 816 816 816 817 817 816 815 813
715 717 720 723 725 727 731 740 743 746 747 754 760 767 771 776 781 787 787 790 793 796 798 800 800 801 805 807 808 809 811 812 815 817 817 817 818 818 818 817 816 815 813 811
722 724 727 729 731 739 742 747 751 756 759 764 771 775 779 784 786 793 792 796 801 802 803 805 805 807 809 811 812 814 814 816 817 819 819 819 819 818 817 816 814 813 811 810
729 731 734 738 740 745 748 752 756 763 767 773 779 784 788 792 795 795 799 804 807 808 809 809 810 811 813 815 815 816 817 819 820 820 819 819 818 817 816 814 813 811 810 808
738 739 741 746 750 754 757 760 764 771 777 780 783 790 795 797 799 802 805 809 812 813 812 813 813 814 817 818 818 819 820 820 819 819 819 818 817 816 815 813 811 809 807 805
Wind_Speed
14 19 18 17 18 17 16 14 14 15 19 13 14 19 18 15 12 8 9 8 10 12 14 15 20 23 25 25 27 28 29 28 27 25 24 24 24 24 24 25 27 27 26 26
14 16 18 20 21 21 21 19 21 22 27 20 20 18 21 19 20 18 12 12 10 12 13 14 18 20 22 22 23 24 25 24 22 22 22 22 22 22 23 25 24 23 23 23
11 5 12 15 22 22 22 20 17 19 20 18 20 22 21 16 15 15 14 13 11 11 11 11 16 17 19 20 20 21 20 19 18 19 19 19 19 20 21 20 19 20 21 20
6 9 9 7 3 14 18 15 10 14 18 21 17 19 20 17 13 10 10 11 12 10 6 11 12 16 16 17 19 19 17 15 14 13 13 12 13 12 11 9 8 7 7 5
4 9 16 18 8 10 12 10 5 11 11 14 20 18 20 15 11 8 6 6 5 5 5 13 13 14 14 15 14 14 14 12 10 9 10 11 11 11 12 14 15 16 16 15
8 7 5 4 12 5 8 13 8 10 13 14 13 14 14 8 3 6 7 5 4 8 12 14 16 19 25 20 21 21 21 21 22 21 22 22 19 19 20 22 24 23 25 25
13 11 8 15 13 11 8 6 16 17 17 17 13 13 1 6 6 7 13 13 13 15 17 19 21 26 25 25 24 25 30 32 31 30 29 27 26 25 26 27 28 29 31 30
6 7 13 6 5 6 11 18 18 16 18 19 15 3 5 8 9 10 12 17 17 18 19 22 24 26 27 25 24 29 29 33 33 32 29 29 30 27 26 28 30 26 27 25
7 5 11 10 4 14 17 18 18 8 21 17 6 4 7 8 10 11 13 18 20 22 23 24 24 26 26 24 29 31 34 30 32 33 32 28 28 25 24 23 22 19 20 19
5 7 13 1 13 17 14 16 14 15 17 8 6 7 8 6 9 13 13 16 20 25 22 23 25 25 27 25 29 32 33 28 28 30 31 29 28 26 25 20 19 17 16 15
9 11 11 11 10 13 16 13 10 12 12 5 9 12 12 7 6 11 16 16 21 21 23 25 22 23 24 25 30 36 31 29 28 29 32 34 33 27 28 26 18 17 17 17
11 12 12 12 14 15 17 14 12 9 1 6 6 10 14 13 10 9 16 21 21 24 25 24 26 25 24 24 29 33 30 24 23 24 25 26 29 35 34 32 31 28 25 20
14 15 13 13 12 16 10 9 7 8 7 7 10 10 11 11 18 17 17 21 22 23 26 26 27 26 24 25 27 33 33 23 23 22 21 20 20 21 23 25 29 26 24 23
19 18 16 17 12 7 4 4 8 11 10 8 9 18 14 13 20 26 16 19 21 27 26 27 28 27 26 28 34 35 29 25 23 21 20 18 17 16 14 13 13 14 19 19
21 16 15 14 12 6 3 7 7 8 10 10 12 13 16 15 17 22 23 24 28 30 25 26 30 28 28 28 30 28 26 23 21 22 21 18 18 16 15 14 12 11 9 12
16 7 8 10 8 3 3 5 8 9 10 11 10 16 23 23 25 25 22 21 24 23 23 25 28 24 27 30 30 28 26 23 21 21 19 17 16 15 14 13 12 11 11 12
13 13 10 5 3 5 6 6 8 11 12 14 16 19 26 27 27 27 27 26 27 28 28 25 25 22 23 24 25 23 22 22 20 19 18 17 15 15 13 12 10 10 10 10
7 6 7 6 5 7 9 10 10 13 13 22 22 22 19 23 19 25 25 27 31 31 27 23 22 23 23 22 22 20 20 19 19 19 17 16 15 14 13 12 11 9 7 7
5 5 3 2 7 10 11 12 15 18 22 25 25 22 23 25 26 27 27 28 25 24 21 21 22 23 24 21 20 19 20 19 18 18 17 16 15 14 12 11 9 7 6 6
3 4 5 7 10 14 14 21 23 20 23 28 31 27 22 22 24 27 27 26 21 21 20 20 22 24 22 20 19 19 19 18 18 17 15 15 14 12 10 9 8 7 7 7
6 7 9 10 12 17 19 23 25 24 23 26 30 28 26 22 25 24 25 22 19 19 20 20 20 20 18 18 18 18 18 17 16 15 14 13 11 10 9 8 7 7 7 7
8 8 9 14 16 18 18 22 26 28 27 29 30 31 28 25 24 25 22 23 18 16 18 19 18 18 18 18 17 17 16 16 15 14 12 11 10 8 7 7 7 6 6 6
12 14 16 16 18 22 26 25 26 29 29 27 28 26 24 22 20 19 18 16 18 18 20 19 21 20 18 16 16 16 16 15 14 12 11 9 7 7 6 5 4 5 5 6
17 20 22 24 26 26 17 23 26 28 31 30 28 24 23 23 23 19 22 21 20 19 19 18 19 18 16 15 15 14 14 13 11 9 8 7 6 5 4 4 4 5 6 8
19 22 24 23 22 19 27 28 29 29 29 29 26 23 21 17 19 19 21 20 19 19 19 18 18 16 14 13 13 12 11 10 8 7 5 4 4 4 4 5 6 7 7 8
18 18 20 21 21 21 21 23 22 22 23 24 23 22 22 21 20 20 19 17 16 16 15 12 12 13 12 11 10 10 8 7 5 4 4 4 4 4 5 7 7 8 8 9
21 21 21 21 21 20 20 21 23 21 21 22 24 20 19 18 18 18 16 15 13 13 12 11 10 10 8 8 7 6 5 4 4 3 3 4 5 5 6 7 8 9 9 10
Wind_Direction
257 275 285 279 277 275 264 257 258 271 273 269 248 263 277 281 279 295 257 190 201 209 206 198 199 200 204 200 201 204 208 210 211 209 210 213 215 218 221 224 226 228 233 238
262 255 257 263 266 261 257 263 268 264 259 260 270 266 265 261 265 269 263 261 213 203 220 209 200 200 200 193 198 201 206 210 212 213 213 215 217 219 222 226 231 235 239 245
251 255 269 251 247 250 259 248 269 271 269 257 248 241 248 249 249 254 256 261 258 216 210 216 203 198 200 190 185 191 198 202 206 211 213 214 217 219 224 227 231 237 239 242
278 290 235 261 312 240 247 257 283 296 278 251 256 241 234 254 252 252 265 275 268 272 203 192 194 186 187 181 177 178 183 187 190 196 205 211 214 218 218 202 176 146 114 103
250 252 274 296 274 228 242 277 332 333 325 258 248 259 259 256 267 285 316 304 299 290 169 138 148 150 154 153 155 145 131 137 143 146 137 137 126 122 119 118 104 93 84 78
226 254 259 226 15 350 311 275 7 359 340 337 313 254 252 248 136 109 89 66 90 119 119 123 125 131 120 118 109 99 104 104 109 115 111 107 110 108 107 106 97 93 84 77
229 245 257 280 329 322 240 333 351 330 333 314 323 291 3 101 77 84 98 98 102 103 101 106 110 109 101 99 94 99 100 98 95 97 99 101 102 100 101 98 95 88 83 78
220 240 244 360 43 334 323 317 312 329 312 304 325 326 85 98 99 105 98 91 92 93 90 101 105 105 98 91 99 97 93 89 88 90 90 92 94 91 92 95 91 87 85 76
210 212 281 310 331 298 295 292 304 283 281 284 333 119 98 107 99 92 88 89 87 83 78 76 90 97 95 99 95 92 88 84 84 82 79 79 82 84 84 86 86 82 80 76
215 233 243 201 277 260 287 321 306 273 270 259 122 114 110 122 124 109 93 94 99 91 85 78 80 86 95 99 100 94 90 88 86 85 82 75 73 72 73 72 79 80 80 80
269 280 281 271 236 311 325 328 339 330 261 202 147 148 132 118 114 112 105 96 96 96 94 90 95 94 99 104 103 94 93 92 89 86 85 79 71 68 70 67 75 79 72 70
274 287 295 293 305 307 312 324 343 341 212 125 142 139 129 124 102 98 101 109 96 97 101 103 100 97 100 103 102 103 93 91 95 96 92 91 88 78 73 77 75 80 82 83
277 285 297 297 300 290 293 350 12 31 39 92 93 106 115 110 96 83 91 94 103 104 100 96 93 90 94 98 101 96 97 102 96 95 97 101 100 99 97 78 75 73 72 70
282 285 284 283 292 313 310 76 69 73 67 80 97 107 107 104 105 96 70 85 94 92 91 95 94 87 93 97 93 91 96 96 96 96 96 96 96 96 97 93 84 72 60 62
275 279 275 285 283 264 198 137 107 84 88 77 84 89 92 95 84 84 93 92 87 85 82 88 86 83 91 91 91 92 93 94 98 95 92 94 94 92 90 86 80 71 57 43
286 294 284 283 296 186 162 168 137 112 103 100 96 97 97 92 90 87 83 87 90 87 84 81 83 88 90 91 91 90 90 92 93 92 92 89 87 87 84 80 74 65 49 33
279 274 269 271 228 170 164 158 148 137 131 117 116 115 107 100 88 81 77 79 82 83 83 83 87 88 87 90 92 92 92 89 90 90 87 85 85 83 82 82 78 71 60 40
303 299 299 289 217 172 141 134 137 135 129 122 118 112 107 105 105 100 95 94 89 79 76 82 85 88 87 86 91 93 93 91 88 88 90 88 87 86 84 81 75 71 63 42
339 326 349 78 144 144 133 126 122 127 127 119 112 107 108 105 106 105 103 92 88 87 85 89 88 88 86 85 90 92 93 94 93 92 92 92 87 84 82 80 78 70 53 35
29 57 78 97 120 132 122 126 125 125 120 115 111 106 102 104 105 100 94 90 93 98 100 94 91 86 88 88 91 94 96 98 97 94 93 90 88 88 86 78 68 53 37 24
72 91 105 107 105 110 117 123 124 118 117 115 109 105 102 98 98 100 101 98 94 97 97 92 91 92 94 94 95 97 97 96 95 95 94 93 92 85 74 62 52 39 24 10
77 89 97 106 106 104 105 114 115 113 114 108 105 104 101 95 90 89 89 101 104 99 97 93 95 99 98 96 97 97 97 97 95 93 91 86 79 72 62 49 35 19 3 349
92 94 94 94 97 98 94 96 101 105 105 105 105 107 106 108 108 104 99 96 100 98 99 100 104 100 96 97 97 96 95 93 91 88 85 81 73 62 49 30 16 357 347 342
106 104 104 107 107 102 98 97 97 96 96 95 92 97 104 103 93 96 103 104 102 103 104 106 105 98 95 95 94 94 92 90 89 86 77 71 62 48 30 11 356 348 341 340
106 108 107 106 103 103 105 106 98 96 94 92 91 91 95 98 104 111 106 105 104 106 106 109 100 90 90 92 94 95 93 92 88 79 71 61 45 27 13 355 347 336 333 327
108 106 102 105 108 110 110 108 101 103 103 99 97 100 100 103 105 103 105 109 110 109 107 99 92 88 90 91 91 92 92 87 78 65 57 37 17 8 354 342 335 332 322 318
91 94 99 96 93 99 102 106 106 107 109 109 107 108 109 107 106 109 110 112 112 109 103 95 89 91 93 91 90 94 98 85 67 50 26 11 2 346 334 332 328 322 319 316